Location: Newark
(46.7000°N, 60.6000°W)
Time: 08:42:33
(UTC+00:00)

Transit 2A Rocket - Pass Details

Date: 01 November 2020
Orbit: 588 x 915 km, 66.7° (Epoch: 23 November)

Event Time Altitude Azimuth Distance (km) Brightness Sun altitude
Rises 19:55:39 0° 329° (NNW) 3,340 8.3 7.0°
Reaches altitude 10° 19:58:30 10° 341° (NNW) 2,348 7.4 6.6°
Maximum altitude 20:03:08 29° 40° (NE) 1,343 5.9 5.9°
Drops below altitude 10° 20:07:23 10° 101° (E) 2,148 6.9 5.2°
Sets 20:09:52 0° 113° (ESE) 3,007 7.7 4.8°
